Location: Peebles
(55.6412°N, 3.1714°W)
Time: 11:59:40
(UTC+00:00)

CUTE-I - Pass Details

Date: 17 December 2023
Orbit: 807 x 823 km, 98.7° (Epoch: 24 February)

Event Time Altitude Azimuth Distance (km) Brightness Sun altitude
Rises 17:15:19 0° 161° (SSE) 3,328 ? -12.0°
Reaches altitude 10° 17:17:38 10° 162° (SSE) 2,403 ? -12.3°
Maximum altitude 17:22:58 89° 255° (WSW) 826 ? -13.0°
Drops below altitude 10° 17:28:22 10° 343° (NNW) 2,430 ? -13.7°
Sets 17:30:44 0° 344° (NNW) 3,369 ? -14.0°
